Location: Baia Mare
(47.6567°N, 23.5850°E)
Time: 09:58:26
(UTC+03:00)

ISS - Pass Details

Date: 07 October 2018
Orbit: 403 x 408 km, 51.6° (Epoch: 21 October)

Event Time Altitude Azimuth Distance (km) Brightness Sun altitude
Rises 19:42:15 0° 292° (WNW) 2,340 1.5 -9.0°
Reaches altitude 10° 19:44:21 10° 296° (WNW) 1,477 0.2 -9.4°
Maximum altitude 19:47:39 66° 19° (NNE) 452 -3.7 -9.9°
Enters shadow 19:50:11 16° 100° (E) 1,169 -2.2 -10.4°
